#timestamp,LO_Frequency,Hit,StdDev 
1573171215.8,286047000.2,N
1573171235.6,286047000.2,N
1573171255.5,286047000.7,N
1573171275.3,286047001.1,N
1573171295.1,286047000.6,N
1573171315.9,286047000.7,N
1573171335.7,286047000.5,N
1573171355.6,286047001.1,N
1573171375.4,286047000.8,N
1573171395.2,286047000.9,N
1573171415.1,286047002.5,N
1573171416.0,286047002.5,N
1573171435.8,286047002.5,N
1573171455.6,286047002.6,N
1573171475.5,286047002.1,N
1573171495.3,286047002.3,N
1573171515.1,286047002.5,N
1573171535.9,286047004.0,Y
1573171555.7,286047000.0,P
1573171575.6,286047001.4,P
1573171595.4,286047002.2,P
1573171615.2,286047004.3,Y
1573171635.1,286047004.1,P
1573171636.0,286047004.1,N
1573171655.8,286047002.9,N
1573171675.7,286047006.9,Y
1573171695.5,286047005.8,P
1573171715.3,286047005.9,P
1573171735.2,286047004.7,P
1573171755.0,286047007.9,Y
1573171755.9,286047007.9,P
1573171775.8,286047001.7,N
1573171795.6,286047002.1,N
1573171815.4,286047001.6,N
1573171835.3,286047002.3,N
1573171855.1,286047000.5,N
1573171875.8,286046999.7,N
1573171895.7,286046999.9,N
1573171915.5,286047000.9,N
1573171935.4,286047001.0,N
1573171955.2,286047000.8,N
1573171975.0,286046998.3,N
1573171975.9,286046998.3,N
1573171995.8,286046998.2,N
1573172015.6,286047000.1,N
1573172035.4,286047001.1,N
1573172055.3,286047001.7,N
1573172075.1,286047001.7,N
1573172095.9,286047003.7,N
1573172115.7,286047005.2,N
1573172135.5,286047007.2,Y
1573172155.4,286047003.9,P
1573172175.2,286047005.2,P
1573172195.0,286047005.1,P
1573172195.9,286047005.1,Y
1573172215.8,286047001.7,P
1573172235.6,286046999.8,N
1573172255.5,286047003.9,N
1573172275.3,286047002.0,N
1573172295.1,286047003.5,N
1573172315.9,286047001.5,N
1573172335.7,286047001.6,N
1573172355.5,286047001.6,N
1573172375.4,286047004.3,Y
1573172395.2,286047001.2,P
1573172415.1,286047000.7,N
1573172416.0,286047000.7,N
1573172435.8,286047002.4,Y
1573172455.6,286047000.3,P
1573172475.5,286047001.3,N
1573172495.3,286047003.9,P
1573172515.2,286047001.8,N
1573172535.9,286047002.6,N
1573172555.7,286047004.2,Y
1573172605.6,286047000.5,E
1573172615.5,286047001.2,N
1573172635.4,286047001.5,P
1573172655.2,286047002.3,P
1573172675.0,286047001.9,Y
1573172675.9,286047001.9,P
1573172695.8,286046998.6,P
1573172715.6,286046997.9,N
1573172735.4,286046995.4,N
1573172755.3,286046994.9,N
1573172775.1,286047000.7,N
1573172795.9,286046998.1,N
1573172815.7,286046999.0,N
1573172835.5,286046998.5,N
1573172855.4,286046999.2,N
1573172875.2,286047002.2,N
1573172895.0,286047000.2,N
1573172895.9,286047000.2,N
1573172915.8,286047002.8,N
1573172935.6,286047002.7,N
1573172955.5,286047002.3,N
1573172975.3,286047002.5,N
1573172995.1,286047000.1,N
1573173015.9,286046999.8,N
1573173035.7,286047000.4,N
1573173055.5,286047002.7,N
1573173075.4,286047001.3,N
1573173095.2,286047005.9,N
1573173115.1,286047005.9,N
1573173116.0,286047005.9,N
1573173135.8,286047005.5,N
1573173155.6,286047003.7,N
1573173175.5,286047003.5,N
1573173195.3,286047003.8,N
1573173215.1,286047001.7,N
1573173235.9,286047001.9,N
1573173255.7,286047001.3,N
1573173275.6,286047002.2,N
1573173295.4,286046998.1,N
1573173315.2,286046998.3,N
1573173335.1,286046999.0,N
1573173336.0,286046999.0,N
1573173355.8,286046995.4,N
1573173375.6,286046995.8,N
1573173395.5,286046993.5,N
1573173415.3,286046993.3,N
1573173435.2,286046995.8,N
1573173455.9,286046995.2,N
1573173475.7,286046996.3,N
1573173495.6,286046995.7,N
1573173515.4,286046996.0,N
1573173535.2,286046995.6,N
1573173555.1,286046996.6,N
1573173556.0,286046996.6,N
1573173575.8,286046995.7,N
1573173595.7,286046996.2,N
1573173615.5,286046995.9,N
1573173635.3,286046996.0,N
1573173655.2,286046997.6,N
1573173675.0,286046995.8,N
1573173675.9,286046995.8,N
1573173695.8,286046995.4,N
1573173715.6,286046995.5,N
1573173735.4,286046997.5,N
1573173755.3,286046996.1,N
1573173775.1,286046996.1,N
1573173795.9,286046995.9,N
1573173815.7,286046993.8,Y
1573173835.5,286046997.9,P
1573173855.4,286046996.4,P
1573173875.2,286046996.0,P
1573173895.0,286046993.5,Y
1573173896.0,286046993.5,P
1573173915.8,286046999.3,N
1573173935.6,286046998.9,N
1573173955.5,286046998.2,N
1573173975.3,286046999.1,N
1573173995.1,286046999.2,N
1573174015.9,286047001.2,N
1573174035.7,286047000.8,N
1573174055.5,286046998.6,N
1573174075.4,286046998.8,N
1573174095.2,286046999.9,N
1573174115.1,286046999.8,N
1573174116.0,286046999.8,N
1573174135.8,286047000.2,N
1573174155.6,286047000.5,N
1573174175.5,286047000.6,N
1573174195.3,286046999.0,N
1573174215.1,286046999.4,N
1573174235.9,286046998.5,N
1573174255.7,286046998.3,N
1573174275.6,286046999.3,N
1573174295.4,286046999.4,N
1573174315.2,286046998.2,N
1573174335.1,286046997.0,N
1573174336.0,286046997.0,N
1573174355.8,286046996.8,N
1573174375.6,286046997.9,N
1573174395.5,286046995.3,Y
1573174415.3,286046999.6,P
1573174435.2,286046998.3,P
1573174455.9,286047001.1,N
1573174475.7,286046998.6,N
1573174495.6,286046998.2,N
1573174515.4,286046998.2,N
1573174535.2,286046999.1,N
1573174555.1,286046998.7,N
1573174586.0,286046998.1,E
1573174595.0,286047000.3,N
1573174595.9,286047000.3,P
1573174615.8,286047002.1,P
1573174635.6,286047003.4,Y
1573174655.5,286047002.1,P
1573174675.3,286047000.1,N
1573174695.1,286047003.6,P
1573174715.9,286047003.6,N
1573174735.7,286047001.5,N
1573174755.5,286047001.3,N
1573174775.4,286047001.3,N
1573174795.2,286047004.3,Y
